TimeCDT,TemperatureF,Dew PointF,Humidity,Sea Level PressureIn,VisibilityMPH,Wind Direction,Wind SpeedMPH,Gust SpeedMPH,PrecipitationIn,Events,Conditions,WindDirDegrees,DateUTC
12:22 AM,30.9,30.0,96,30.16,2.0,WSW,6.9,-,N/A,,Overcast,240,2014-03-25 05:22:00
12:31 AM,30.9,30.9,100,30.15,1.5,WSW,8.1,-,N/A,,Overcast,250,2014-03-25 05:31:00
12:51 AM,30.2,30.2,100,30.15,2.5,WSW,8.1,-,N/A,,Overcast,250,2014-03-25 05:51:00
12:53 AM,30.9,30.9,100,30.18,2.5,WSW,8.1,-,N/A,,Overcast,250,2014-03-25 05:53:00
1:19 AM,30.9,30.9,100,30.15,3.0,West,8.1,-,N/A,,Overcast,270,2014-03-25 06:19:00
1:53 AM,32.0,30.9,96,30.17,4.0,West,11.5,-,N/A,,Overcast,280,2014-03-25 06:53:00
2:02 AM,32.0,30.9,96,30.15,4.0,WNW,10.4,-,N/A,,Overcast,290,2014-03-25 07:02:00
2:19 AM,32.0,30.0,92,30.14,6.0,WNW,11.5,-,N/A,,Overcast,300,2014-03-25 07:19:00
2:35 AM,32.0,30.0,92,30.14,5.0,WNW,11.5,-,N/A,,Overcast,300,2014-03-25 07:35:00
2:53 AM,32.0,28.9,88,30.17,7.0,WNW,15.0,24.2,N/A,,Overcast,300,2014-03-25 07:53:00
3:53 AM,30.9,28.0,89,30.17,6.0,WNW,13.8,-,N/A,,Overcast,300,2014-03-25 08:53:00
4:53 AM,30.0,27.0,88,30.18,5.0,WNW,11.5,-,0.00,,Overcast,300,2014-03-25 09:53:00
5:05 AM,28.9,27.0,92,30.15,5.0,WNW,10.4,-,N/A,,Mostly Cloudy,300,2014-03-25 10:05:00
5:41 AM,28.0,26.1,92,30.17,5.0,NW,8.1,-,N/A,,Scattered Clouds,310,2014-03-25 10:41:00
5:53 AM,28.0,26.1,92,30.21,5.0,NW,8.1,-,N/A,,Partly Cloudy,310,2014-03-25 10:53:00
6:53 AM,28.0,26.1,92,30.23,5.0,WNW,8.1,-,N/A,,Overcast,290,2014-03-25 11:53:00
7:53 AM,28.0,25.0,88,30.25,6.0,WNW,8.1,-,N/A,,Overcast,300,2014-03-25 12:53:00
8:53 AM,30.0,23.0,75,30.27,10.0,NW,12.7,29.9,N/A,,Overcast,320,2014-03-25 13:53:00
9:53 AM,32.0,21.0,64,30.28,10.0,NW,15.0,21.9,0.00,,Scattered Clouds,320,2014-03-25 14:53:00
10:53 AM,32.0,17.1,54,30.30,10.0,NW,16.1,25.3,N/A,,Mostly Cloudy,320,2014-03-25 15:53:00
11:53 AM,35.1,14.0,42,30.30,10.0,WNW,18.4,28.8,N/A,,Mostly Cloudy,290,2014-03-25 16:53:00
12:53 PM,37.9,12.9,36,30.29,10.0,NW,17.3,33.4,N/A,,Scattered Clouds,310,2014-03-25 17:53:00
1:53 PM,39.0,10.0,30,30.27,10.0,WNW,18.4,31.1,N/A,,Clear,300,2014-03-25 18:53:00
2:53 PM,39.9,10.0,29,30.26,10.0,NW,23.0,31.1,N/A,,Clear,310,2014-03-25 19:53:00
3:53 PM,39.9,9.0,28,30.25,10.0,WNW,19.6,27.6,N/A,,Partly Cloudy,300,2014-03-25 20:53:00
4:53 PM,39.9,9.0,28,30.25,10.0,West,16.1,-,N/A,,Clear,280,2014-03-25 21:53:00
5:53 PM,37.9,9.0,30,30.25,10.0,NW,13.8,24.2,N/A,,Clear,320,2014-03-25 22:53:00
6:53 PM,36.0,9.0,33,30.27,10.0,NW,11.5,-,N/A,,Clear,310,2014-03-25 23:53:00
7:53 PM,32.0,9.0,38,30.26,10.0,NNW,4.6,-,N/A,,Clear,330,2014-03-26 00:53:00
8:53 PM,30.0,10.0,43,30.26,10.0,NNW,4.6,-,N/A,,Clear,330,2014-03-26 01:53:00
9:53 PM,24.1,12.9,62,30.28,10.0,Calm,Calm,-,N/A,,Clear,0,2014-03-26 02:53:00
10:53 PM,26.1,10.9,53,30.29,10.0,Calm,Calm,-,N/A,,Clear,0,2014-03-26 03:53:00
11:53 PM,19.0,10.9,71,30.29,10.0,Calm,Calm,-,N/A,,Clear,0,2014-03-26 04:53:00